Location: Warszawa
(52.2322°N, 21.0083°E)
Time: 06:17:11
(UTC+02:00)

ISS - Pass Details

Date: 28 March 2019
Orbit: 408 x 410 km, 51.6° (Epoch: 22 April)

Event Time Altitude Azimuth Distance (km) Brightness Sun altitude
Rises 20:56:20 0° 278° (W) 2,339 0.9 -24.7°
Reaches altitude 10° 20:58:26 10° 276° (W) 1,476 -0.3 -24.9°
Enters shadow 20:59:49 23° 271° (W) 934 -1.6 -25.0°
